Blue Canyon, CA

9:50 AM PDT on June 26, 2017 (GMT -0700)
Blue Canyon-Nyack

Weather History for KBLU - March, 2014

Change the Weather History Date:

Wednesday, March 5, 2014

  Actual Average Record
Temperature  
Mean Temperature 44 °F -  
Max Temperature 48 °F 45 °F 64 °F (1972)
Min Temperature 41 °F 31 °F 11 °F (1956)
Degree Days  
Heating Degree Days 20    
Moisture  
Dew Point 41 °F    
Average Humidity 89    
Maximum Humidity 96    
Minimum Humidity 76    
Precipitation  
Precipitation 0.84 in - - ()
Sea Level Pressure  
Sea Level Pressure 30.08 in    
Wind  
Wind Speed 10 mph (SSE)    
Max Wind Speed 21 mph    
Max Gust Speed 34 mph    
Visibility 5 miles    
Events Fog , Rain    
Averages and records for this station are not official NWS values.
T = Trace of Precipitation, MM = Missing Value Source: NWS Daily Summary

Daily Weather History Graph

Daily Weather History Graph

Search for Another Location

Airport or City:

Trip Planner

Search our weather history database for the weather conditions in past years. The results will help you decide how hot, cold, wet, or windy it might be!

Date:

Astronomy

Mar. 05, 2014 Rise Set
Actual Time 6:29 AM PST 5:59 PM PST
Civil Twilight 6:02 AM PST 6:26 PM PST
Nautical Twilight 5:31 AM PST 6:57 PM PST
Astronomical Twilight 5:00 AM PST 7:28 PM PST
Moon 9:00 AM PST (3/5) 11:11 PM PST (3/5)
Length of Visible Light 12h 23m
Length of Day
11h 30m
Waxing Crescent, 24% of the Moon is Illuminated
Mar 5
Waxing Crescent
Mar 8
First Quarter
Mar 16
Full
Mar 23
Last Quarter
Mar 30
New

Hourly Weather History & Observations

Time (PST) Temp. Windchill Dew Point Humidity Pressure Visibility Wind Dir Wind Speed Gust Speed Precip Events Conditions
12:19 AM 43.0 °F 38.8 °F 41.0 °F 93% 30.15 in 10.0 mi SSE 6.9 mph - N/A   Overcast
12:52 AM 43.0 °F 38.8 °F 41.0 °F 93% 30.07 in 10.0 mi South 6.9 mph - N/A   Overcast
1:35 AM 43.0 °F 38.2 °F 41.0 °F 93% 30.15 in 10.0 mi SSE 8.1 mph - N/A   Overcast
1:52 AM 43.0 °F 39.5 °F 41.0 °F 93% 30.05 in 10.0 mi SE 5.8 mph - N/A   Overcast
2:20 AM 43.0 °F 38.2 °F 41.0 °F 93% 30.14 in 1.5 mi South 8.1 mph - N/A   Overcast
2:22 AM 43.0 °F 38.8 °F 41.0 °F 93% 30.14 in 0.8 mi South 6.9 mph - N/A   Overcast
2:32 AM 43.0 °F 38.8 °F 41.0 °F 93% 30.14 in 0.2 mi South 6.9 mph - N/A Fog Fog
2:52 AM 43.0 °F 38.2 °F 41.0 °F 93% 30.05 in 0.2 mi South 8.1 mph - N/A Fog Fog
3:28 AM 43.0 °F 38.2 °F 41.0 °F 93% 30.14 in 0.5 mi South 8.1 mph - 0.01 in Fog , Rain Light Rain
3:52 AM 43.0 °F 38.8 °F 41.0 °F 93% 30.06 in 0.5 mi SSE 6.9 mph - 0.01 in Fog , Rain Light Rain
4:16 AM 43.0 °F 38.2 °F 41.0 °F 93% 30.15 in 0.2 mi South 8.1 mph - 0.02 in Fog , Rain Light Rain
4:36 AM 42.1 °F 37.7 °F 39.9 °F 92% 30.15 in 1.0 mi South 6.9 mph - 0.03 in Rain Light Rain
4:38 AM 42.1 °F 37.1 °F 39.9 °F 92% 30.15 in 2.0 mi SSW 8.1 mph - 0.03 in Rain Light Rain
4:45 AM 42.1 °F 36.6 °F 39.9 °F 92% 30.16 in 1.2 mi SSW 9.2 mph - 0.05 in Rain Rain
4:52 AM 42.1 °F 38.4 °F 39.9 °F 92% 30.09 in 0.5 mi SW 5.8 mph - 0.06 in Fog , Rain Light Rain
5:26 AM 41.0 °F 34.3 °F 39.9 °F 96% 30.13 in 1.0 mi SE 11.5 mph 17.3 mph 0.10 in Rain Rain
5:38 AM 41.0 °F 35.2 °F 39.9 °F 96% 30.13 in 0.5 mi SE 9.2 mph - 0.10 in Fog Fog
5:47 AM 41.0 °F 35.8 °F 39.2 °F 93% 30.14 in 0.8 mi SE 8.1 mph - 0.10 in   Overcast
5:52 AM 41.0 °F 38.0 °F 39.9 °F 96% 30.07 in 2.0 mi SE 4.6 mph - 0.10 in   Overcast
5:59 AM 41.0 °F 38.0 °F 39.9 °F 96% 30.14 in 9.0 mi ESE 4.6 mph - N/A   Overcast
6:52 AM 41.0 °F 38.0 °F 39.0 °F 93% 30.07 in 10.0 mi ESE 4.6 mph - N/A   Overcast
7:52 AM 44.1 °F 41.5 °F 39.0 °F 82% 30.08 in 10.0 mi SE 4.6 mph - N/A   Overcast
8:52 AM 45.0 °F 41.2 °F 39.9 °F 82% 30.10 in 10.0 mi SSE 6.9 mph - N/A   Overcast
9:52 AM 46.0 °F 41.9 °F 41.0 °F 83% 30.10 in 10.0 mi South 8.1 mph - N/A   Overcast
10:38 AM 46.0 °F 41.9 °F 41.0 °F 83% 30.18 in 10.0 mi South 8.1 mph - N/A   Overcast
10:52 AM 46.9 °F - 42.1 °F 83% 30.09 in 10.0 mi SE 8.1 mph - N/A   Overcast
11:10 AM 46.9 °F - 41.0 °F 80% 30.17 in 10.0 mi SSE 11.5 mph 17.3 mph N/A   Overcast
11:52 AM 48.0 °F - 41.0 °F 77% 30.09 in 10.0 mi South 11.5 mph - N/A   Overcast
12:52 PM 48.0 °F - 42.1 °F 80% 30.07 in 10.0 mi South 10.4 mph 17.3 mph N/A   Overcast
1:36 PM 48.0 °F - 43.0 °F 83% 30.14 in 10.0 mi South 12.7 mph - N/A   Overcast
1:52 PM 48.0 °F - 44.1 °F 86% 30.04 in 7.0 mi South 11.5 mph - 0.00 in Rain Light Rain
2:08 PM 48.0 °F - 43.0 °F 83% 30.12 in 10.0 mi South 12.7 mph - 0.00 in   Overcast
2:18 PM 48.9 °F - 43.0 °F 80% 30.12 in 10.0 mi South 12.7 mph - 0.00 in   Overcast
2:52 PM 48.0 °F - 43.0 °F 83% 30.03 in 10.0 mi South 10.4 mph - 0.00 in   Overcast
3:01 PM 48.0 °F - 43.0 °F 83% 30.12 in 10.0 mi South 10.4 mph - N/A   Overcast
3:38 PM 46.9 °F - 43.0 °F 86% 30.12 in 10.0 mi South 11.5 mph - N/A   Overcast
3:52 PM 46.9 °F - 43.0 °F 86% 30.04 in 10.0 mi South 9.2 mph - N/A   Overcast
4:35 PM 45.0 °F 40.6 °F 39.0 °F 80% 30.12 in 3.0 mi South 8.1 mph 19.6 mph 0.01 in Rain Light Rain
4:52 PM 45.0 °F 39.3 °F 39.9 °F 82% 30.04 in 10.0 mi SSE 11.5 mph - 0.01 in   Overcast
5:52 PM 45.0 °F 39.7 °F 39.9 °F 82% 30.03 in 10.0 mi SE 10.4 mph - N/A   Overcast
6:52 PM 46.0 °F 40.6 °F 39.0 °F 76% 30.01 in 10.0 mi SSE 11.5 mph 23.0 mph 0.00 in   Overcast
7:45 PM 43.0 °F 37.2 °F 41.0 °F 93% 30.09 in 2.5 mi South 10.4 mph 16.1 mph 0.06 in Rain Heavy Rain
7:52 PM 44.1 °F 37.7 °F 39.9 °F 85% 30.00 in 1.8 mi SSE 12.7 mph 24.2 mph 0.11 in Rain Rain
7:59 PM 43.0 °F 36.4 °F 41.0 °F 93% 30.07 in 2.5 mi SSE 12.7 mph 21.9 mph 0.02 in Rain Light Rain
8:02 PM 43.0 °F 36.4 °F 41.0 °F 93% 30.07 in 3.0 mi SSE 12.7 mph 19.6 mph 0.02 in Rain Light Rain
8:20 PM 43.0 °F 37.7 °F 41.0 °F 93% 30.08 in 3.0 mi South 9.2 mph 23.0 mph 0.03 in Rain Light Rain
8:24 PM 43.0 °F 37.7 °F 41.0 °F 93% 30.08 in 1.8 mi SSW 9.2 mph - 0.03 in Rain Light Rain
8:39 PM 43.0 °F 34.5 °F 39.9 °F 89% 30.07 in 2.0 mi South 19.6 mph 28.8 mph 0.11 in Rain Heavy Rain
8:49 PM 42.8 °F 35.1 °F 39.2 °F 87% 30.07 in 3.0 mi SSE 16.1 mph 27.6 mph 0.14 in Rain Light Rain
8:52 PM 43.0 °F 34.8 °F 39.9 °F 89% 30.00 in 4.0 mi SSE 18.4 mph 27.6 mph 0.14 in Rain Rain
9:01 PM 43.0 °F 34.8 °F 41.0 °F 93% 30.07 in 2.5 mi SSE 18.4 mph 27.6 mph 0.03 in Rain Light Rain
9:06 PM 43.0 °F 35.1 °F 41.0 °F 93% 30.07 in 1.5 mi SSE 17.3 mph 25.3 mph 0.03 in Rain Light Rain
9:11 PM 43.0 °F 34.2 °F 41.0 °F 93% 30.07 in 1.5 mi SSE 20.7 mph 28.8 mph 0.04 in Rain Light Rain
9:16 PM 43.0 °F 35.1 °F 41.0 °F 93% 30.06 in 2.0 mi SSE 17.3 mph 28.8 mph 0.04 in Rain Light Rain
9:23 PM 43.0 °F 36.4 °F 41.0 °F 93% 30.05 in 1.8 mi SSE 12.7 mph 25.3 mph 0.04 in Rain Light Rain
9:30 PM 43.0 °F 36.0 °F 41.0 °F 93% 30.05 in 1.0 mi SSE 13.8 mph 23.0 mph 0.04 in   Overcast
9:35 PM 43.0 °F 35.4 °F 41.0 °F 93% 30.05 in 2.0 mi SSE 16.1 mph 26.5 mph 0.04 in Rain Light Rain
9:44 PM 43.0 °F 35.7 °F 41.0 °F 93% 30.04 in 5.0 mi SSE 15.0 mph 24.2 mph 0.04 in Rain Light Rain
9:52 PM 43.0 °F 37.2 °F 41.0 °F 93% 29.97 in 5.0 mi South 10.4 mph 20.7 mph 0.06 in Rain Light Rain
10:08 PM 43.0 °F 34.5 °F 41.0 °F 93% 30.04 in 2.0 mi South 19.6 mph 31.1 mph 0.10 in Rain Rain
10:18 PM 43.0 °F 34.8 °F 41.0 °F 93% 30.04 in 4.0 mi SSE 18.4 mph 31.1 mph 0.11 in Rain Light Rain
10:43 PM 43.0 °F 34.8 °F 39.9 °F 89% 30.06 in 5.0 mi South 18.4 mph 28.8 mph 0.13 in Rain Light Rain
10:52 PM 43.0 °F 35.4 °F 39.9 °F 89% 29.98 in 9.0 mi South 16.1 mph - 0.14 in Rain Light Rain
11:06 PM 43.0 °F 34.5 °F 39.9 °F 89% 30.06 in 2.0 mi South 19.6 mph 28.8 mph 0.03 in Rain Light Rain
11:08 PM 43.0 °F 35.7 °F 39.9 °F 89% 30.07 in 1.0 mi South 15.0 mph 28.8 mph 0.03 in Rain Light Rain
11:52 PM 41.0 °F 33.1 °F 39.9 °F 96% 29.99 in 0.8 mi SSE 15.0 mph 26.5 mph 0.21 in Rain Light Rain
11:56 PM 41.0 °F 32.2 °F 39.0 °F 93% 30.07 in 1.8 mi SSE 18.4 mph 34.5 mph 0.00 in Rain Light Rain
11:58 PM 41.0 °F 32.2 °F 39.0 °F 93% 30.07 in 3.0 mi SSE 18.4 mph 34.5 mph 0.00 in Rain Light Rain